CW8690 Weather Reports


time (UTC)temp
F
wind
direction
speed
knots
gust
knots
rain 1hr
in
rain 24hr
in
rain mn
in
humidity
%
barometer
mb
20260507001123 85 46 5.2 9.6 0.00 0.00 0.00 87 1004.8
20260506235625 86 130 5.2 11.3 0.00 0.00 0.00 85 1004.4
20260506234118 86 129 5.2 12.2 0.00 0.00 0.00 85 1004.4
20260506232639 87 144 6.1 11.3 0.00 0.00 0.00 83 1004.1
20260506231132 88 97 5.2 14.8 0.00 0.00 0.00 82 1003.9
20260506225626 88 62 6.1 12.2 0.00 0.00 0.00 81 1003.8
20260506224126 89 97 7.0 14.8 0.00 0.00 0.00 81 1003.7
20260506222620 89 81 7.8 15.6 0.00 0.00 0.00 81 1003.6
20260506221116 90 93 7.0 13.9 0.00 0.00 0.00 78 1003.8
20260506215620 94 109 4.3 13.0 0.00 0.00 0.00 70 1003.6
20260506214152 96 214 3.5 6.1 0.00 0.00 0.00 65 1003.6
20260506212617 95 202 3.5 7.0 0.00 0.00 0.00 66 1003.7
20260506211115 95 180 4.3 8.7 0.00 0.00 0.00 65 1003.6
20260506205617 94 84 4.3 9.6 0.00 0.00 0.00 69 1003.8
20260506204151 94 139 6.1 11.3 0.00 0.00 0.00 68 1003.9
20260506202630 94 113 6.1 9.6 0.00 0.00 0.00 69 1004.4
20260506201127 93 171 7.0 10.4 0.00 0.00 0.00 70 1004.4
20260506195622 93 180 5.2 9.6 0.00 0.00 0.00 70 1004.4
20260506194126 92 167 6.1 9.6 0.00 0.00 0.00 71 1004.6
20260506185646 92 175 6.1 13.0 0.00 0.00 0.00 72 1005.2
20260506184143 91 209 5.2 16.5 0.00 0.00 0.00 75 1005.1
20260506182620 90 204 5.2 13.9 0.00 0.00 0.00 76 1005.3
20260506181120 90 225 6.1 13.0 0.00 0.00 0.00 77 1005.6
20260506175643 89 115 6.1 14.8 0.00 0.00 0.00 78 1005.7
20260506174118 89 157 7.8 16.5 0.00 0.00 0.00 78 1005.8
20260506172636 88 166 7.8 14.8 0.00 0.00 0.00 79 1006.0
20260506171204 87 159 7.0 12.2 0.00 0.00 0.00 80 1006.0
20260506165642 88 170 6.1 11.3 0.00 0.00 0.00 80 1006.2
20260506164135 87 172 5.2 16.5 0.00 0.00 0.00 80 1006.0
20260506162625 86 126 5.2 13.9 0.00 0.00 0.00 82 1006.1
20260506161121 86 162 5.2 11.3 0.00 0.00 0.00 83 1005.9
20260506155637 86 166 2.6 8.7 0.00 0.00 0.00 85 1005.9
20260506154147 84 117 4.3 9.6 0.00 0.00 0.00 86 1005.9
20260506152624 84 116 6.1 10.4 0.00 0.00 0.00 87 1005.7
20260506151134 83 125 5.2 7.8 0.00 0.00 0.00 89 1006.0
20260506145624 82 171 2.6 7.8 0.00 0.00 0.00 88 1006.3
20260506144119 83 141 0.9 7.0 0.00 0.00 0.00 89 1006.4
20260506142636 82 157 2.6 8.7 0.00 0.00 0.00 91 1006.4
20260506141159 81 223 3.5 7.0 0.00 0.00 0.00 92 1006.7
20260506135618 80 174 1.7 6.1 0.00 0.00 0.00 92 1006.7
20260506134134 80 178 2.6 7.0 0.00 0.00 0.00 93 1006.4
20260506132637 80 180 2.6 7.0 0.00 0.00 0.00 93 1006.2
20260506131129 80 144 2.6 7.8 0.00 0.00 0.00 93 1006.2
20260506125628 79 145 4.3 7.8 0.00 0.00 0.00 94 1005.7
20260506124123 79 176 2.6 7.0 0.00 0.00 0.00 94 1005.5
20260506122624 79 165 2.6 6.1 0.00 0.00 0.00 94 1005.2
20260506121126 79 175 4.3 9.6 0.00 0.00 0.00 95 1005.1
20260506115630 79 153 4.3 10.4 0.00 0.00 0.00 95 1004.6
20260506114130 79 148 6.1 12.2 0.00 0.00 0.00 95 1004.3
20260506112633 79 91 5.2 12.2 0.00 0.00 0.00 95 1004.1
20260506111135 78 146 5.2 10.4 0.00 0.00 0.00 95 1004.0
20260506105633 79 175 7.0 11.3 0.00 0.00 0.00 95 1003.7
20260506104133 79 161 7.0 13.9 0.00 0.00 0.00 95 1003.5
20260506102644 79 137 7.0 10.4 0.00 0.00 0.00 94 1003.8
20260506101142 79 140 4.3 12.2 0.00 0.00 0.00 94 1003.6
20260506095619 79 124 5.2 13.0 0.00 0.00 0.00 95 1003.8
20260506094142 78 134 6.1 11.3 0.00 0.00 0.00 96 1003.7
20260506092643 78 130 4.3 10.4 0.00 0.00 0.00 96 1003.9
20260506091141 78 121 5.2 10.4 0.00 0.00 0.00 96 1004.0
20260506085635 78 85 4.3 7.8 0.00 0.00 0.00 96 1004.0
20260506084124 78 138 6.1 9.6 0.00 0.00 0.00 96 1004.1
20260506082621 78 136 5.2 7.8 0.00 0.00 0.00 96 1004.3
20260506081119 78 98 5.2 9.6 0.00 0.00 0.00 96 1004.4
20260506072622 78 141 4.3 12.2 0.00 0.00 0.00 95 1004.8
20260506071125 78 142 7.0 12.2 0.00 0.00 0.00 95 1004.9
20260506061120 78 129 6.1 11.3 0.00 0.00 0.00 94 1005.3
20260506051124 79 148 6.1 12.2 0.00 0.00 0.00 93 1006.2
20260506044120 79 126 7.0 11.3 0.00 0.00 0.00 92 1006.2
20260506042618 79 104 6.1 9.6 0.00 0.00 0.00 92 1006.3
20260506041140 80 117 7.0 12.2 0.00 0.00 0.00 91 1006.2
20260506035621 80 123 6.1 13.0 0.00 0.00 0.00 91 1006.2
20260506034117 80 164 6.1 11.3 0.00 0.00 0.00 91 1006.0
20260506032641 80 130 7.0 10.4 0.00 0.00 0.00 91 1005.8
20260506031116 80 98 5.2 11.3 0.00 0.00 0.00 91 1005.8
20260506025641 80 142 6.1 11.3 0.00 0.00 0.00 91 1005.5
20260506024139 80 104 7.0 12.2 0.00 0.00 0.00 90 1005.3
20260506022620 80 144 6.1 12.2 0.00 0.00 0.00 90 1005.0
20260506021135 80 134 7.8 13.0 0.00 0.00 0.00 90 1004.7
20260506015625 80 128 7.8 12.2 0.00 0.00 0.00 89 1004.3
20260506014125 80 148 7.8 13.0 0.00 0.00 0.00 89 1004.1
20260506012623 81 141 7.0 11.3 0.00 0.00 0.00 89 1004.1
20260506011141 81 110 6.1 13.0 0.00 0.00 0.00 88 1003.7
20260506005618 81 90 6.1 14.8 0.00 0.00 0.00 87 1003.5
20260506004118 81 138 7.0 15.6 0.00 0.00 0.00 87 1003.4
20260506002641 82 128 8.7 15.6 0.00 0.00 0.00 86 1003.4